Content
SEND FEEDBACK

Daily
Averages
Monthly
Summary
Greece

ANDRAVIDHA, GREECE


Home > Europe > Greece
Elevation: 50 feet     Latitude: 37 55N     Longitude: 021 17E

WEATHER
 
SELECT A DAY
Number of Records: 83,984;   Date Range: 7/11/96 - 4/16/14
 
SHARE

PRINT THIS DATA

[ ← Previous Day ]
WEATHER ALMANAC - APRIL 18, 2013
[ Next Day → ]
[ °C ]   °F
Weather ElementAverageHighLow
Temperature59.5 °F71.6 °F (2:50 pm)41 °F (6:20 am)
Dewpoint39.4 °F48.2 °F (7:50 pm)30.2 °F (4:50 pm)
Humidity52.3 %93 % (7:20 am)14 % (3:00 pm)
Barometer30.03 in30.09 in (9:00 am)29.98 in (4:50 pm)
Wind Speed5.1 mph13.8 mph (3:50 pm)
Weather ElementAverage
Visibility6.2 mi
Wind DirectionENE (55.5 °)

Weather ElementTotal
Precipitation---
Heating Degree Days8.7 (Base 65)
Growing Degree Days6.3 (Base 50)
Averaged from 42 records on April 18, 2013
WEATHER CONDITIONS BREAKOUT
WIND DIRECTION BREAKOUT
WEATHER BY HOUR - APRIL 18, 2013
[ °C ]   °F
Local TimeTemperatureDewpointHumidityBarometerVisibilityWind DirectionWind SpeedGust SpeedPrecipitationEventsConditions
1:50 AM50.0 °F42.8 °F76 %30.06 in6.2 miESE (110°)5.8 mphPartly Cloudy
2:50 AM46.4 °F42.8 °F87 %30.06 in6.2 miCalmPartly Cloudy
3:00 AM47.0 °F42.0 °F76 %30.08 in6.0 miCalmScattered Clouds
3:50 AM44.6 °F41.0 °F87 %30.06 in6.2 miCalmPartly Cloudy
5:50 AM42.8 °F39.2 °F87 %30.06 in6.2 miCalmPartly Cloudy
6:20 AM41.0 °F37.4 °F87 %30.06 in6.2 miCalmPartly Cloudy
6:50 AM42.8 °F39.2 °F87 %30.06 in6.2 miCalmPartly Cloudy
7:20 AM41.0 °F39.2 °F93 %30.06 in6.2 miCalmScattered Clouds
7:50 AM42.8 °F39.2 °F87 %30.06 in6.2 miCalmMostly Cloudy
8:20 AM42.8 °F39.2 °F87 %30.06 in6.2 miCalmMostly Cloudy
8:50 AM53.6 °F44.6 °F72 %30.06 in6.2 miCalmScattered Clouds
9:00 AM54.0 °F45.0 °F64 %30.09 in6.0 miCalmScattered Clouds
9:20 AM53.6 °F44.6 °F72 %30.06 in6.2 miCalmScattered Clouds
9:50 AM60.8 °F42.8 °F52 %30.06 in6.2 miCalmScattered Clouds
10:20 AM60.8 °F42.8 °F52 %30.06 in6.2 miCalmScattered Clouds
10:50 AM66.2 °F39.2 °F37 %30.06 in6.2 miNE (40°)4.6 mphPartly Cloudy
11:50 AM68.0 °F39.2 °F35 %30.06 in6.2 miNNE (30°)4.6 mphPartly Cloudy
12:20 PM68.0 °F39.2 °F35 %30.06 in6.2 miNNE (30°)4.6 mphPartly Cloudy
12:50 PM69.8 °F35.6 °F28 %30.04 in6.2 miNNE (30°)11.5 mphPartly Cloudy
1:20 PM69.8 °F35.6 °F28 %30.04 in6.2 miNNE (30°)11.5 mphPartly Cloudy
1:50 PM69.8 °F37.4 °F31 %30.04 in6.2 miNE (40°)9.2 mphPartly Cloudy
2:20 PM69.8 °F37.4 °F31 %30.04 in6.2 miNE (40°)9.2 mphPartly Cloudy
2:50 PM71.6 °F33.8 °F25 %30.01 in6.2 miNNE (20°)11.5 mphPartly Cloudy
3:00 PM71.0 °F33.0 °F14 %30.03 in6.0 miNNE (20°)11.5 mphScattered Clouds
3:50 PM69.8 °F33.8 °F27 %30.01 in6.2 miNNE (20°)13.8 mphPartly Cloudy
4:20 PM69.8 °F33.8 °F27 %30.01 in6.2 miNNE (20°)13.8 mphPartly Cloudy
4:50 PM71.6 °F30.2 °F22 %29.98 in6.2 miNNE (20°)13.8 mphPartly Cloudy
5:20 PM71.6 °F30.2 °F22 %29.98 in6.2 miNNE (20°)13.8 mphPartly Cloudy
5:50 PM69.8 °F30.2 °F23 %29.98 in6.2 miNNE (30°)11.5 mphPartly Cloudy
6:20 PM69.8 °F30.2 °F23 %29.98 in6.2 miNNE (30°)11.5 mphPartly Cloudy
6:50 PM68.0 °F33.8 °F28 %29.98 in6.2 miNNE (30°)6.9 mphScattered Clouds
7:20 PM68.0 °F33.8 °F28 %29.98 in6.2 miNNE (30°)6.9 mphScattered Clouds
7:50 PM62.6 °F48.2 °F59 %29.98 in6.2 miNW (310°)4.6 mphScattered Clouds
8:20 PM62.6 °F48.2 °F59 %29.98 in6.2 miNW (310°)4.6 mphScattered Clouds
8:50 PM59.0 °F44.6 °F59 %30.01 in6.2 miNW (310°)4.6 mphScattered Clouds
9:00 PM58.0 °F45.0 °F52 %30.01 in6.0 miNW (310°)4.6 mphScattered Clouds
9:20 PM59.0 °F44.6 °F59 %30.01 in6.2 miNW (310°)4.6 mphScattered Clouds
9:50 PM59.0 °F41.0 °F51 %30.01 in6.2 miNE (40°)6.9 mphScattered Clouds
10:20 PM59.0 °F41.0 °F51 %30.01 in6.2 miNE (40°)6.9 mphScattered Clouds
10:50 PM59.0 °F44.6 °F59 %30.01 in6.2 miCalmMostly Cloudy
11:20 PM59.0 °F44.6 °F59 %30.01 in6.2 miCalmMostly Cloudy
11:50 PM57.2 °F42.8 °F59 %30.01 in6.2 miCalmScattered Clouds
Hourly data recorded from LGAD, located 18.97 miles away from Andravidha, Greece







STORIES FROM OUR PARTNERS